[[{"header":{"parameterUnit":"m.s-1","parameterCategory":1,"la1":30.2991,"la2":30.254,"lo1":-89.0895,"lo2":-89.0444,"dy":0.0017,"dx":0.0017,"nx":28,"ny":28,"refTime":"2023-08-08T21:00:00:Z","depth":0,"parameterNumber":2,"parameterNumberName":"U-component_of_WINDS"},"data":[0,0,0,0,0,0,0,0,0,0,0,0,0,0,0,0,0,0,0,0,0,0,0,0,0,0,0,0,0,0,0,0,0,0,0,0,0,0,0,0,0,0,0,0,0,0,0,0,0,0,0,0,0,0,0,0,0,0,2.7672,2.7673,0,2.7781,2.7782,2.7784,2.7801,2.78,2.7799,2.7798,2.7914,2.7918,2.7922,0,0,0,0,0,0,0,0,0,0,0,0,0,2.748,2.7484,2.7672,2.7673,2.7674,2.7781,2.7782,2.7784,2.7801,2.78,2.7799,2.7798,2.7912,2.7917,2.7922,0,0,0,0,0,0,0,0,0,0,0,0,0,2.7574,2.7485,2.7671,2.7696,2.7699,2.7781,2.7783,2.7784,2.7801,2.78,2.7799,2.7797,2.7911,2.7917,2.7923,2.7989,0,0,2.7941,2.7943,0,0,0,0,0,0,0,0,2.7569,2.7581,2.7691,2.7694,2.7698,2.7776,2.7757,2.7853,2.7802,2.7763,2.7798,2.7796,2.7869,2.7879,2.7902,2.7994,2.7999,2.7941,2.7945,2.7948,2.7949,0,0,0,0,0,0,0,2.7562,2.7576,2.7715,2.7692,2.7697,2.7702,2.7714,2.7776,2.7823,2.7766,2.7767,2.778,2.7871,2.7897,2.7905,2.8001,2.7941,2.7946,2.795,2.7953,2.8152,2.8153,0,0,0,0,0,0,2.7551,2.7571,2.7712,2.7718,2.7628,2.7707,2.772,2.7752,2.7822,2.7831,2.7781,2.778,2.7887,2.7898,2.7909,2.7991,2.7947,2.7953,2.7957,2.815,2.8152,2.8154,0,0,0,0,0,0,2.7547,2.7563,2.7707,2.7645,2.7664,2.7712,2.7748,2.7755,2.7781,2.7834,2.7843,2.7798,2.7886,2.7901,2.7968,2.7995,2.7956,2.7961,2.8148,2.8151,2.8153,2.8154,0,0,0,0,0,0,2.7541,2.7562,2.7586,2.7645,2.7667,2.7763,2.775,2.7759,2.7791,2.7791,2.7852,2.7861,2.7886,2.7959,2.7974,2.8002,2.7966,2.8146,2.8149,2.8152,2.8152,2.8156,2.816,0,0,0,0,0,2.7534,2.7583,2.7588,2.7604,2.7699,2.7765,2.7777,2.7804,2.7793,2.7819,2.7852,2.7859,2.799,2.7966,2.7983,2.8013,2.8144,2.8148,2.8152,2.815,2.8155,2.816,0,0,0,0,0,0,2.7527,2.7591,2.7597,2.7666,2.771,2.7768,2.7801,2.7809,2.7858,2.7856,2.7889,2.7903,2.7968,2.7998,2.7971,2.8081,2.8066,2.8074,2.8059,2.8065,2.8069,2.806,2.7971,0,0,0,0,0,2.7533,2.7581,2.7635,2.7691,2.7712,2.7753,2.7783,2.78,2.7846,2.7865,2.7904,2.795,2.8002,2.8035,2.8085,2.8157,2.817,2.8186,2.819,2.8193,2.8199,2.8238,2.8246,2.8167,2.8167,2.8166,0,0,2.7547,2.7588,2.7616,2.769,2.7726,2.7775,2.7768,2.782,2.7857,2.7874,2.7939,2.7969,2.8023,2.8092,2.8125,2.8119,2.8224,2.8198,2.82,2.8204,2.8243,2.825,2.8257,2.8169,2.8169,2.8168,0,0,2.7597,2.7633,2.7683,2.7719,2.7773,2.78,2.7812,2.7868,2.7888,2.7954,2.7968,2.8013,2.8101,2.8138,2.8169,2.8233,2.8241,2.8249,2.827,2.8308,2.8314,2.832,2.8342,2.835,2.8254,2.8254,2.8254,0,2.7608,2.7681,2.7708,2.776,2.7792,2.7808,2.786,2.7893,2.7961,2.7984,2.7976,2.8086,2.8124,2.8202,2.8217,2.8242,2.8257,2.8241,2.8311,2.8317,2.8323,2.8344,2.8352,2.8255,2.8255,2.8255,2.8255,0,2.7691,2.7742,2.7776,2.784,2.7876,2.7927,2.7963,2.7997,2.8011,2.8039,2.8106,2.8151,2.821,2.8231,2.8246,2.8311,2.8305,2.8304,2.829,2.833,2.8351,2.8359,2.8256,2.8255,2.8255,2.8255,0,0,2.7739,2.7817,2.7829,2.7858,2.7919,2.7959,2.8011,2.8068,2.8096,2.8143,2.8187,2.8261,2.826,2.8295,2.8314,2.8348,2.8395,2.8342,2.8344,2.8349,2.8469,2.8468,2.8478,2.84,2.8402,2.8404,2.8464,0,2.7795,2.7887,2.7914,2.7992,2.8039,2.8055,2.8101,2.8143,2.8171,2.8215,2.8246,2.8298,2.8293,2.8314,2.8347,2.8381,2.8419,2.8378,2.8442,2.8444,2.8427,2.8489,2.8489,2.8544,2.8472,2.8474,2.8475,0,2.7873,2.792,2.8002,2.8056,2.8077,2.8117,2.8171,2.8214,2.8263,2.828,2.8319,2.8335,2.8391,2.8374,2.8451,2.8423,2.8451,2.8472,2.8475,2.8481,2.8461,2.8496,2.8562,2.8569,2.8488,2.8487,2.8486,0,2.7898,2.7982,2.8042,2.8066,2.8131,2.8159,2.8188,2.8235,2.8268,2.8316,2.8337,2.8391,2.8421,2.8463,2.8494,2.8479,2.8568,2.8554,2.8585,2.8584,2.8602,2.86,2.8672,2.8622,2.8622,2.8622,2.8621,0,2.7958,2.8007,2.8054,2.8091,2.8147,2.8177,2.8232,2.8262,2.8304,2.8347,2.8366,2.8406,2.8445,2.849,2.8515,2.8575,2.8589,2.8605,2.8611,2.8603,2.86,2.8621,2.8618,2.8624,2.8623,2.8623,2.8622,0,2.7995,2.8028,2.8095,2.8151,2.8166,2.8205,2.8253,2.829,2.8318,2.8372,2.8387,2.8432,2.8486,2.8521,2.8592,2.8608,2.8674,2.8679,2.8657,2.8659,2.8687,2.8684,2.8774,2.8787,2.8729,2.8729,2.873,0,2.803,2.8069,2.8128,2.8158,2.8187,2.8235,2.8268,2.8299,2.8333,2.8391,2.8421,2.8477,2.8523,2.861,2.8649,2.8703,2.8709,2.8737,2.8717,2.8708,2.8709,2.8705,2.8709,2.874,2.8741,2.8741,2.8741,0,2.8089,2.8103,2.815,2.8202,2.824,2.8283,2.8326,2.835,2.8389,2.8426,2.8482,2.8517,2.8589,2.8644,2.8701,2.8732,2.8743,2.8747,2.8757,2.8749,2.8734,2.8741,2.8664,2.8745,2.8745,2.8744,2.8744,2.8744,2.8126,2.816,2.8207,2.8259,2.8294,2.8334,2.837,2.8403,2.8449,2.8509,2.8525,2.8583,2.8632,2.8709,2.8741,2.8787,2.8784,2.8798,2.8802,2.8804,2.8804,2.8727,2.8798,2.8798,2.8798,2.8798,2.8798,0,2.8184,2.8216,2.8262,2.8321,2.8361,2.8368,2.8416,2.8449,2.8499,2.8543,2.8588,2.8652,2.8705,2.8749,2.8804,2.8833,2.8839,2.8846,2.8844,2.885,2.8805,2.879,2.884,2.884,2.884,2.884,2.884,2.884,2.8219,2.8278,2.8298,2.8375,2.8406,2.8462,2.8489,2.8526,2.856,2.863,2.8674,2.8702,2.8746,2.8804,2.8854,2.8865,2.8884,2.889,2.8902,2.8859,2.8854,2.8849,2.8836,2.8894,2.8894,2.8944,2.8945,2.8945]},{"header":{"parameterUnit":"m.s-1","parameterCategory":1,"la1":30.2991,"la2":30.254,"lo1":-89.0895,"lo2":-89.0444,"dy":0.0017,"dx":0.0017,"nx":28,"ny":28,"refTime":"2023-08-08T21:00:00:Z","depth":0,"parameterNumber":3,"parameterNumberName":"V-component_of_WINDS"},"data":[0,0,0,0,0,0,0,0,0,0,0,0,0,0,0,0,0,0,0,0,0,0,0,0,0,0,0,0,0,0,0,0,0,0,0,0,0,0,0,0,0,0,0,0,0,0,0,0,0,0,0,0,0,0,0,0,0,0,4.4293,4.4293,0,4.4279,4.4279,4.4278,4.4286,4.4286,4.4286,4.4287,4.4267,4.4267,4.4266,0,0,0,0,0,0,0,0,0,0,0,0,0,4.4324,4.4323,4.4293,4.4293,4.4293,4.4279,4.4279,4.4278,4.4286,4.4286,4.4287,4.4287,4.4268,4.4267,4.4266,0,0,0,0,0,0,0,0,0,0,0,0,0,4.431,4.4323,4.4293,4.4295,4.4295,4.4279,4.4279,4.4278,4.4286,4.4286,4.4287,4.4287,4.4268,4.4267,4.4265,4.4245,0,0,4.4261,4.4261,0,0,0,0,0,0,0,0,4.4311,4.4309,4.4295,4.4295,4.4295,4.4285,4.4282,4.4267,4.4285,4.4289,4.4287,4.4288,4.4272,4.4271,4.4267,4.4245,4.4244,4.4261,4.4261,4.426,4.426,0,0,0,0,0,0,0,4.4312,4.431,4.4287,4.4295,4.4295,4.4295,4.4294,4.4279,4.4277,4.4289,4.4289,4.4288,4.4272,4.4268,4.4266,4.4243,4.4261,4.426,4.4259,4.4259,4.4203,4.4202,0,0,0,0,0,0,4.4313,4.431,4.4288,4.4287,4.4305,4.4294,4.4293,4.4287,4.4278,4.4277,4.4287,4.4288,4.427,4.4268,4.4266,4.4241,4.426,4.4259,4.4258,4.4204,4.4203,4.4202,0,0,0,0,0,0,4.4314,4.4311,4.4289,4.4299,4.4296,4.4293,4.4287,4.4287,4.4282,4.4277,4.4276,4.4283,4.427,4.4267,4.425,4.424,4.4258,4.4257,4.4205,4.4204,4.4203,4.4191,0,0,0,0,0,0,4.4315,4.4311,4.4305,4.4299,4.4296,4.4275,4.4286,4.4286,4.428,4.4281,4.4272,4.4271,4.427,4.4252,4.4249,4.4239,4.4256,4.4205,4.4204,4.4203,4.4193,4.419,4.4188,0,0,0,0,0,4.4316,4.4301,4.4304,4.4302,4.4287,4.4274,4.4272,4.4273,4.428,4.4272,4.4268,4.4272,4.4242,4.4251,4.4247,4.4236,4.4206,4.4205,4.4203,4.4194,4.4191,4.4188,0,0,0,0,0,0,4.4305,4.4301,4.4304,4.4287,4.4281,4.4276,4.4266,4.427,4.426,4.4262,4.4261,4.4259,4.4241,4.4237,4.4247,4.4216,4.4225,4.4223,4.4219,4.4216,4.4214,4.4215,4.4255,0,0,0,0,0,4.4301,4.4292,4.4288,4.4274,4.4271,4.4269,4.4264,4.4265,4.4258,4.4255,4.425,4.4242,4.4231,4.4223,4.4213,4.4192,4.419,4.4183,4.4181,4.4179,4.4176,4.4164,4.4161,4.4197,4.4197,4.4197,0,0,4.4291,4.4288,4.4282,4.4272,4.4267,4.4257,4.4267,4.4256,4.4247,4.4253,4.4237,4.4233,4.4224,4.4205,4.4196,4.4201,4.4166,4.4177,4.4175,4.4174,4.4162,4.4159,4.4156,4.4196,4.4196,4.4196,0,0,4.4269,4.4267,4.4254,4.425,4.4243,4.4242,4.4239,4.4233,4.4231,4.4216,4.4219,4.4209,4.419,4.4183,4.4177,4.4153,4.4155,4.4149,4.4137,4.4125,4.4122,4.4119,4.411,4.4106,4.4147,4.4147,4.4147,0,4.4258,4.4244,4.4247,4.4235,4.423,4.4236,4.4222,4.4217,4.4207,4.4203,4.4208,4.4185,4.4179,4.4158,4.4152,4.4148,4.4143,4.415,4.4122,4.412,4.4117,4.4108,4.4105,4.4146,4.4146,4.4147,4.4147,0,4.4231,4.4221,4.4211,4.4203,4.4196,4.4184,4.4183,4.4176,4.4178,4.4176,4.4159,4.4153,4.4141,4.4136,4.4137,4.4115,4.4118,4.4123,4.4132,4.4113,4.4104,4.4101,4.4145,4.4146,4.4146,4.4146,0,0,4.42,4.4194,4.419,4.4186,4.418,4.4172,4.4159,4.4149,4.4142,4.4135,4.4123,4.4107,4.4112,4.4105,4.4105,4.4095,4.4075,4.4101,4.4101,4.4096,4.405,4.4045,4.4041,4.4077,4.4077,4.4076,4.405,0,4.4177,4.4157,4.4159,4.4138,4.4129,4.4134,4.4123,4.4117,4.4115,4.4105,4.4102,4.409,4.4098,4.4094,4.4084,4.408,4.4066,4.4082,4.4065,4.4064,4.4066,4.4037,4.4032,4.4008,4.4047,4.4046,4.4046,0,4.4147,4.4141,4.412,4.4115,4.4111,4.4101,4.4091,4.4082,4.4075,4.4074,4.4067,4.4069,4.4054,4.4065,4.4044,4.4055,4.4048,4.4045,4.4044,4.4042,4.4053,4.4032,4.4,4.3996,4.404,4.4041,4.4041,0,4.4126,4.4112,4.4097,4.4094,4.4088,4.408,4.4077,4.4071,4.4065,4.4056,4.4051,4.4041,4.4034,4.4025,4.4023,4.4031,4.4002,4.4013,4.4,4.4,4.3993,4.3993,4.3958,4.399,4.399,4.399,4.399,0,4.41,4.4086,4.4088,4.4079,4.4064,4.4066,4.4051,4.4048,4.4042,4.4032,4.4035,4.4025,4.4024,4.4013,4.4011,4.3994,4.3991,4.3989,4.3988,4.3988,4.3988,4.3983,4.3984,4.3989,4.3989,4.3989,4.399,0,4.4073,4.4074,4.4058,4.4054,4.4053,4.4042,4.4037,4.4028,4.4027,4.4013,4.401,4.4007,4.3994,4.3992,4.3977,4.3975,4.3954,4.3956,4.3957,4.3957,4.3944,4.3945,4.3903,4.3897,4.3934,4.3934,4.3933,0,4.4056,4.4046,4.4041,4.4035,4.4032,4.4022,4.4016,4.4017,4.401,4.4001,4.3993,4.3981,4.3971,4.395,4.3945,4.3933,4.3934,4.392,4.3932,4.3932,4.3933,4.3933,4.3931,4.3918,4.3917,4.3917,4.3917,0,4.4024,4.4025,4.4017,4.4009,4.4002,4.3995,4.3988,4.3983,4.3983,4.3975,4.3963,4.3956,4.394,4.3928,4.3916,4.3911,4.3913,4.3913,4.391,4.3909,4.3909,4.3908,4.395,4.3914,4.3914,4.3915,4.3915,4.3915,4.4001,4.3993,4.3988,4.3978,4.3974,4.3968,4.3959,4.3957,4.3947,4.3936,4.3937,4.3923,4.3915,4.39,4.3894,4.3882,4.3887,4.3881,4.388,4.3878,4.3876,4.3912,4.388,4.388,4.388,4.388,4.3881,0,4.3969,4.3967,4.3958,4.395,4.3942,4.3947,4.394,4.3932,4.3921,4.3914,4.3905,4.3891,4.3878,4.3873,4.3861,4.3852,4.3853,4.3849,4.3849,4.3847,4.3874,4.3878,4.3848,4.3848,4.3848,4.3848,4.3848,4.3848,4.3952,4.3937,4.3937,4.392,4.3917,4.3905,4.3901,4.3895,4.3889,4.3874,4.3864,4.3861,4.3855,4.3842,4.3831,4.3829,4.3824,4.3819,4.3818,4.3842,4.3846,4.3849,4.3853,4.3818,4.3818,4.3792,4.3792,4.3792]}]]